Location: Ferchesar
(52.6477°N, 12.4298°E)
Time: 15:32:45
(UTC+01:00)

Vanguard 3 - Pass Details

Date: 13 December 2021
Orbit: 508 x 3260 km, 33.3° (Epoch: 22 January)

Event Time Altitude Azimuth Distance (km) Brightness Sun altitude
Rises 05:03:30 0° 262° (W) 6,857 - -27.3°
Reaches altitude 10° 05:08:24 10° 255° (WSW) 6,037 - -26.6°
Exits shadow 05:14:25 23° 242° (WSW) 5,158 10.7 -25.7°
Maximum altitude 05:24:56 36° 198° (SSW) 4,311 10.6 -24.1°
Drops below altitude 10° 05:39:47 10° 140° (SE) 5,417 12.0 -21.9°
Sets 05:43:54 0° 133° (SE) 6,108 12.6 -21.3°
